This is the latest recevied weather packets stored in our database for station/object KD7CTY. If no packets are shown the sender has not sent any weather packets the latest 10 day(s).
| Time | Temp. | Humidity | Pressure | Rain* | Wind** | Luminosity | Snow |
|---|---|---|---|---|---|---|---|
| 1777854152 | 27.22° C | 40% | 1009.5 hPa | 0 mm | - | 424 W/m² | - |
| 1777853850 | 27.22° C | 35% | 1009.5 hPa | 0 mm | - | 433 W/m² | - |
| 1777853546 | 27.22° C | 35% | 1009.5 hPa | 0 mm | - | 436 W/m² | - |
| 1777853243 | 27.22° C | 36% | 1009.4 hPa | 0 mm | - | 452 W/m² | - |
| 1777852940 | 27.22° C | 38% | 1009.6 hPa | 0 mm | - | 442 W/m² | - |
| 1777852638 | 27.78° C | 36% | 1009.5 hPa | 0 mm | - | 461 W/m² | - |
| 1777852335 | 27.22° C | 35% | 1009.6 hPa | 0 mm | - | 476 W/m² | - |
| 1777852033 | 27.22° C | 35% | 1009.6 hPa | 0 mm | - | 495 W/m² | - |
| 1777851731 | 27.22° C | 34% | 1009.4 hPa | 0 mm | - | 510 W/m² | - |
| 1777851428 | 27.22° C | 36% | 1009.7 hPa | 0 mm | - | 518 W/m² | - |
| 1777851123 | 27.22° C | 35% | 1009.8 hPa | 0 mm | - | 505 W/m² | - |
| 1777850820 | 27.22° C | 36% | 1009.6 hPa | 0 mm | - | 524 W/m² | - |
| 1777850517 | 27.22° C | 35% | 1009.9 hPa | 0 mm | - | 529 W/m² | - |
| 1777850216 | 27.22° C | 36% | 1009.8 hPa | 0 mm | - | 521 W/m² | - |
| 1777849911 | 27.78° C | 35% | 1009.8 hPa | 0 mm | - | 530 W/m² | - |
| 1777849608 | 27.78° C | 35% | 1009.9 hPa | 0 mm | - | 517 W/m² | - |
| 1777849306 | 27.78° C | 39% | 1010 hPa | 0 mm | - | 533 W/m² | - |
| 1777849003 | 27.22° C | 37% | 1010.2 hPa | 0 mm | - | 561 W/m² | - |
| 1777848703 | 27.22° C | 37% | 1010.2 hPa | 0 mm | - | 582 W/m² | - |
| 1777848400 | 27.22° C | 36% | 1010.2 hPa | 0 mm | - | 606 W/m² | - |
| 1777848098 | 27.22° C | 38% | 1010.2 hPa | 0 mm | - | 636 W/m² | - |
| 1777847796 | 27.78° C | 36% | 1010.4 hPa | 0 mm | - | 647 W/m² | - |
| 1777847492 | 27.78° C | 37% | 1010.3 hPa | 0 mm | - | 651 W/m² | - |
| 1777847189 | 27.78° C | 37% | 1010.5 hPa | 0 mm | - | 653 W/m² | - |
| 1777846887 | 27.78° C | 37% | 1010.4 hPa | 0 mm | - | 646 W/m² | - |
* Rain latest hour (hover to see other rain measurements)
** Current wind speed in m/s (hover to see current wind gust speed)